Temp
9 9 9 9 9 9 9 9 9 8 8 8 9 9 9 9 8 8 8 8 7 7 7 6 7 7 7 7 7 7 7 7 6 6 6 6 6 6 7 6 5 6 6
9 9 9 9 9 9 9 9 9 9 8 8 8 8 8 9 8 8 8 8 7 7 7 7 7 7 7 7 7 7 7 7 6 6 6 6 6 6 6 6 6 5 6
9 9 9 9 9 8 8 8 8 9 8 8 8 8 8 8 8 8 8 8 8 7 7 6 6 7 7 7 7 7 7 7 6 6 6 5 5 5 5 5 5 5 5
9 9 9 9 8 8 8 8 8 8 8 8 7 8 8 8 8 8 8 7 7 7 7 7 6 6 6 6 6 6 6 6 5 6 5 5 5 5 5 5 5 5 5
9 9 9 9 9 8 8 8 8 8 7 7 7 7 7 7 7 7 7 7 8 7 7 7 7 7 6 6 6 6 6 6 6 6 6 6 5 5 4 4 4 4 4
9 9 9 8 9 8 8 8 8 7 7 7 7 7 7 7 7 7 7 7 7 7 7 7 6 6 6 6 6 6 6 6 6 6 6 5 5 5 5 4 4 4 3
9 10 9 9 9 8 8 8 7 7 7 7 6 7 6 6 6 6 6 6 6 6 6 6 6 5 5 5 5 5 5 5 5 4 4 4 4 4 4 4 3 3 3
8 9 9 8 9 8 8 8 8 7 7 6 6 6 6 6 5 6 6 5 5 5 6 6 5 5 5 4 4 4 4 4 4 3 3 3 3 3 3 3 3 2 2
9 9 8 7 8 8 8 7 8 7 7 6 5 5 5 5 5 5 5 5 5 5 5 5 5 4 4 4 4 4 4 3 3 3 3 2 2 2 1 2 2 2 2
8 8 8 8 8 8 7 8 8 7 7 6 5 5 4 4 4 5 5 5 4 4 4 4 4 4 4 4 3 3 3 3 3 3 3 2 1 1 1 1 1 2 2
8 8 8 8 8 8 8 8 8 7 7 6 4 4 4 5 5 5 5 5 5 4 4 3 3 2 2 2 2 2 2 3 3 3 2 2 1 0 1 1 2 2 2
8 8 8 8 8 7 8 8 7 7 6 6 5 4 4 4 5 4 4 4 4 4 4 3 1 2 1 1 2 2 2 2 3 2 2 2 2 2 1 1 1 1 1
9 8 8 8 7 7 8 7 7 6 5 5 4 4 4 4 4 4 4 3 3 3 3 2 1 2 1 1 1 1 2 2 2 2 1 1 1 1 1 1 1 1 1
9 8 8 8 7 8 7 7 7 6 5 5 4 4 4 4 4 3 3 3 3 3 2 2 2 1 1 1 1 2 2 1 1 1 0 1 1 1 1 1 0 0 0
8 8 7 7 7 7 7 7 7 6 4 4 4 4 4 4 3 3 3 3 2 2 2 3 2 2 2 2 1 1 1 0 -0 -1 -0 -0 0 0 -0 -0 -0 0 0
7 7 7 7 7 7 7 6 6 5 4 4 4 4 2 3 3 3 3 3 2 2 2 1 1 1 1 1 1 0 -0 -1 -1 -1 -1 -1 -0 -1 -0 -1 -1 -1 -1
6 6 6 7 7 6 6 5 5 4 4 4 3 3 3 3 3 3 3 3 2 2 1 1 1 0 -1 -1 -1 -1 -1 -1 -1 -1 -1 -1 -1 -1 -1 -1 -1 -1 -2
6 6 6 6 5 5 5 4 4 4 4 4 4 4 3 3 3 3 3 2 1 0 -0 -0 -1 -1 -2 -2 -2 -2 -2 -1 -2 -2 -2 -2 -2 -2 -2 -2 -2 -2 -2
6 6 5 5 5 5 5 4 3 3 3 3 2 2 2 2 2 2 2 1 0 -1 -1 -0 -1 -2 -2 -2 -2 -2 -3 -2 -2 -2 -2 -2 -2 -3 -3 -3 -3 -2 -2
5 5 5 4 3 3 3 3 2 2 2 1 1 1 1 1 1 0 0 0 -1 -2 -2 -2 -2 -2 -2 -2 -2 -3 -3 -3 -3 -3 -3 -3 -3 -3 -3 -3 -3 -3 -3
4 3 3 3 3 2 1 0 0 1 1 1 -0 -0 -1 -1 -1 -1 -0 -1 -1 -2 -2 -3 -4 -4 -4 -3 -3 -4 -3 -3 -3 -3 -3 -3 -4 -3 -4 -4 -4 -4 -4
3 2 2 1 -0 -0 -1 -1 -2 -2 -3 -2 -3 -2 -2 -2 -2 -2 -2 -1 -2 -3 -3 -3 -4 -4 -4 -5 -5 -5 -5 -4 -4 -4 -4 -4 -4 -5 -5 -5 -5 -5 -5
1 1 -1 -1 -1 -2 -2 -2 -2 -2 -2 -3 -3 -3 -3 -2 -3 -2 -3 -3 -4 -5 -5 -4 -4 -4 -4 -5 -5 -5 -5 -5 -5 -5 -5 -5 -5 -5 -5 -5 -5 -5 -5
0 -2 -2 -2 -2 -2 -2 -2 -2 -2 -2 -2 -2 -3 -2 -3 -3 -4 -4 -4 -4 -5 -6 -5 -5 -5 -4 -5 -5 -5 -5 -5 -6 -5 -5 -5 -6 -6 -6 -6 -6 -6 -6
-1 -1 -1 -2 -2 -2 -2 -2 -2 -2 -2 -2 -2 -3 -3 -3 -4 -4 -4 -4 -5 -4 -4 -4 -4 -5 -6 -5 -6 -6 -6 -6 -5 -6 -7 -7 -6 -6 -6 -6 -6 -6 -6
-0 -1 -1 -2 -2 -2 -2 -3 -2 -3 -3 -3 -3 -4 -3 -3 -3 -3 -4 -4 -4 -4 -4 -5 -5 -5 -5 -6 -6 -6 -7 -6 -7 -6 -6 -6 -7 -7 -6 -7 -7 -7 -7
Height
3177 3179 3181 3182 3181 3180 3179 3175 3173 3170 3167 3165 3163 3161 3159 3157 3155 3154 3154 3151 3150 3149 3149 3150 3151 3153 3155 3157 3157 3159 3160 3161 3161 3162 3162 3163 3163 3162 3162 3159 3157 3156 3154
3176 3177 3179 3181 3181 3181 3178 3176 3172 3170 3167 3165 3164 3162 3161 3159 3157 3156 3155 3153 3152 3151 3150 3150 3150 3151 3153 3155 3156 3156 3157 3157 3157 3156 3157 3158 3158 3157 3156 3154 3153 3151 3149
3175 3176 3178 3179 3180 3180 3177 3175 3171 3170 3168 3166 3165 3164 3162 3161 3158 3157 3155 3154 3152 3151 3150 3150 3150 3150 3150 3151 3152 3152 3152 3153 3152 3152 3153 3153 3152 3151 3150 3149 3149 3148 3147
3174 3176 3177 3178 3178 3177 3176 3174 3171 3170 3168 3168 3165 3164 3164 3162 3160 3158 3156 3155 3153 3152 3151 3150 3149 3149 3149 3150 3149 3149 3149 3149 3149 3149 3148 3147 3147 3147 3147 3145 3145 3144 3143
3174 3175 3176 3176 3177 3176 3175 3173 3171 3170 3169 3167 3166 3165 3164 3163 3162 3160 3158 3156 3155 3153 3152 3151 3150 3150 3149 3148 3148 3147 3147 3146 3146 3145 3144 3144 3144 3144 3143 3142 3142 3140 3139
3173 3173 3175 3176 3177 3177 3174 3172 3170 3169 3169 3167 3165 3165 3164 3163 3162 3161 3160 3158 3156 3154 3152 3151 3150 3149 3147 3147 3146 3146 3146 3144 3143 3142 3142 3141 3141 3140 3138 3138 3137 3136 3136
3172 3172 3174 3175 3176 3176 3173 3171 3169 3168 3168 3166 3165 3164 3162 3162 3161 3160 3159 3157 3156 3155 3154 3152 3150 3148 3147 3146 3145 3145 3144 3143 3142 3141 3140 3139 3138 3136 3135 3134 3134 3133 3132
3173 3173 3173 3173 3173 3172 3171 3170 3168 3167 3166 3165 3163 3162 3160 3159 3159 3159 3158 3156 3155 3153 3151 3150 3149 3148 3146 3145 3144 3143 3142 3140 3139 3138 3136 3135 3134 3133 3132 3131 3130 3130 3129
3172 3169 3170 3171 3169 3168 3167 3166 3165 3164 3163 3162 3161 3159 3158 3157 3156 3157 3156 3154 3153 3151 3149 3148 3146 3145 3144 3143 3141 3139 3138 3137 3135 3133 3131 3130 3129 3128 3127 3127 3127 3126 3125
3165 3166 3166 3165 3164 3165 3164 3164 3162 3160 3159 3158 3158 3157 3156 3155 3154 3154 3154 3153 3152 3149 3146 3144 3142 3141 3139 3139 3139 3137 3135 3133 3131 3129 3127 3126 3125 3124 3123 3122 3121 3121 3120
3164 3163 3163 3163 3162 3162 3162 3160 3158 3157 3155 3154 3154 3153 3153 3153 3152 3151 3150 3149 3149 3147 3143 3141 3139 3138 3136 3135 3134 3132 3131 3129 3127 3126 3124 3123 3123 3120 3118 3118 3115 3115 3115
3159 3160 3160 3160 3159 3159 3158 3156 3154 3153 3151 3150 3150 3149 3149 3149 3148 3147 3147 3146 3144 3143 3140 3138 3136 3135 3134 3133 3131 3129 3127 3125 3123 3122 3121 3119 3118 3117 3115 3113 3112 3111 3110
3155 3155 3155 3154 3155 3155 3154 3152 3150 3148 3146 3145 3146 3146 3146 3145 3145 3144 3143 3142 3141 3139 3137 3134 3132 3132 3130 3129 3127 3126 3124 3121 3119 3118 3117 3115 3113 3113 3112 3111 3109 3108 3107
3149 3149 3150 3151 3151 3150 3149 3147 3145 3144 3143 3142 3143 3143 3142 3141 3141 3140 3139 3138 3137 3135 3133 3131 3129 3127 3126 3125 3123 3121 3119 3117 3116 3114 3113 3112 3111 3110 3108 3108 3107 3106 3104
3145 3145 3146 3146 3146 3145 3144 3142 3140 3140 3139 3139 3139 3139 3138 3137 3137 3137 3135 3134 3131 3129 3128 3126 3125 3123 3121 3120 3119 3117 3115 3114 3113 3111 3110 3108 3107 3106 3106 3104 3103 3102 3102
3140 3141 3141 3141 3141 3140 3139 3138 3138 3137 3137 3136 3135 3134 3133 3133 3132 3131 3130 3128 3126 3125 3123 3122 3121 3120 3117 3115 3113 3113 3112 3110 3109 3107 3106 3104 3103 3102 3102 3101 3100 3099 3098
3136 3137 3137 3138 3137 3136 3136 3135 3135 3134 3133 3132 3131 3130 3130 3129 3128 3126 3125 3124 3122 3121 3119 3118 3116 3115 3113 3112 3110 3109 3108 3107 3105 3104 3102 3099 3098 3097 3096 3096 3095 3094 3093
3133 3134 3134 3134 3133 3133 3132 3133 3131 3130 3130 3130 3128 3127 3126 3125 3124 3122 3121 3120 3119 3117 3116 3114 3112 3111 3110 3109 3108 3106 3104 3102 3101 3099 3097 3096 3094 3093 3092 3092 3092 3091 3090
3130 3130 3131 3131 3131 3130 3130 3132 3132 3129 3129 3127 3126 3125 3124 3122 3121 3119 3118 3116 3115 3114 3112 3111 3109 3109 3109 3107 3106 3103 3101 3098 3095 3093 3093 3091 3090 3089 3088 3088 3088 3087 3086
3127 3127 3126 3126 3126 3126 3126 3126 3127 3128 3128 3126 3124 3123 3122 3120 3119 3118 3116 3115 3113 3112 3111 3109 3109 3107 3105 3103 3102 3100 3097 3093 3091 3090 3088 3087 3085 3085 3085 3083 3083 3082 3081
3125 3125 3125 3125 3125 3125 3126 3125 3124 3123 3123 3123 3123 3122 3120 3120 3118 3117 3115 3113 3112 3112 3110 3109 3107 3105 3103 3101 3098 3096 3094 3091 3087 3085 3084 3083 3082 3081 3080 3079 3078 3077 3076
3123 3123 3123 3123 3124 3125 3124 3124 3124 3123 3121 3120 3119 3118 3118 3117 3115 3112 3112 3112 3110 3108 3108 3107 3106 3103 3100 3098 3096 3093 3090 3088 3085 3082 3080 3078 3077 3075 3074 3073 3072 3071 3070
3122 3121 3121 3122 3124 3124 3124 3124 3124 3123 3122 3119 3117 3116 3115 3114 3113 3111 3110 3108 3106 3105 3103 3102 3101 3099 3098 3095 3092 3089 3087 3084 3082 3080 3077 3075 3073 3071 3069 3068 3066 3064 3063
3118 3120 3121 3122 3122 3122 3122 3121 3120 3119 3119 3116 3114 3113 3112 3111 3109 3106 3105 3105 3104 3102 3099 3096 3094 3091 3090 3088 3085 3083 3081 3080 3079 3077 3074 3072 3070 3068 3066 3064 3061 3058 3056
3117 3118 3120 3121 3120 3120 3118 3117 3116 3115 3114 3113 3112 3109 3108 3106 3104 3103 3100 3099 3097 3095 3095 3092 3092 3089 3086 3082 3079 3077 3075 3073 3072 3068 3066 3063 3062 3061 3060 3058 3055 3053 3050
3115 3116 3117 3116 3116 3115 3114 3113 3112 3109 3109 3105 3106 3103 3102 3102 3100 3099 3097 3096 3093 3091 3089 3088 3086 3083 3080 3076 3072 3068 3066 3064 3061 3059 3057 3053 3052 3051 3050 3049 3047 3045 3044
Wind_Speed
7 4 5 2 5 9 13 17 18 13 11 10 12 14 14 12 13 10 9 6 4 4 3 2 4 8 9 11 11 11 11 15 17 18 17 16 17 19 21 21 22 23 19
5 5 5 2 5 9 13 14 16 15 12 10 12 13 13 12 11 9 9 10 10 6 3 2 2 4 5 7 12 13 13 13 14 15 15 17 19 18 18 14 16 18 15
4 5 4 2 5 9 12 13 15 17 15 12 11 12 12 12 11 11 11 11 11 9 7 2 1 2 4 5 6 8 8 9 13 16 19 20 18 18 15 14 13 14 13
7 7 5 3 5 9 10 12 14 15 16 12 10 10 10 10 10 11 11 12 11 11 10 8 5 3 4 4 5 6 7 9 9 9 9 12 12 14 15 12 15 15 13
3 4 5 3 7 8 9 11 11 14 15 14 11 9 9 9 8 9 9 10 12 11 9 8 7 6 5 7 7 7 9 10 10 11 10 11 12 13 14 15 11 13 17
3 5 5 4 6 8 10 12 12 13 14 15 14 11 9 8 9 9 9 11 12 12 10 8 8 6 5 5 6 7 8 8 8 8 9 10 11 11 12 12 13 14 12
4 4 5 4 7 9 12 14 14 14 14 15 15 14 11 9 8 8 9 12 12 11 11 10 9 6 6 5 5 5 7 8 8 9 10 10 10 11 12 12 12 11 11
5 2 3 3 6 10 10 15 16 16 15 15 16 16 14 10 9 9 10 13 13 15 16 14 11 7 7 7 8 10 9 11 12 14 15 14 14 13 12 12 12 12 13
4 5 10 8 8 9 13 15 17 17 16 16 15 15 15 11 10 9 12 10 11 15 16 14 13 10 7 9 10 10 11 14 17 18 17 15 14 12 13 13 13 13 16
8 8 9 8 11 12 15 16 18 19 17 16 16 14 13 11 12 14 11 12 15 17 16 15 13 11 12 11 9 11 14 17 17 14 13 12 12 12 14 15 16 16 15
13 13 13 13 14 15 18 18 17 19 18 18 11 12 12 11 14 13 17 18 15 11 18 19 14 11 12 13 16 17 16 16 15 14 14 13 11 14 17 17 19 16 13
18 17 16 16 16 18 19 19 19 19 16 16 14 12 14 12 14 12 19 16 15 18 20 20 13 15 14 15 17 17 19 19 18 18 17 16 14 14 14 14 14 15 14
20 17 16 18 19 18 18 19 18 17 14 11 8 12 13 13 16 17 14 12 17 20 21 19 14 13 21 15 16 16 17 18 20 20 18 15 13 12 12 13 13 14 13
18 17 17 17 16 18 19 19 16 15 12 10 10 14 12 15 15 16 16 15 21 21 20 18 15 16 17 15 17 17 18 19 18 17 15 14 14 13 13 12 11 11 12
17 17 15 16 18 19 19 16 13 11 9 10 11 14 14 15 15 16 15 19 19 19 19 15 14 16 17 18 16 15 16 14 12 13 14 15 15 13 11 12 11 10 9
18 16 15 16 17 17 14 11 10 9 9 9 10 12 11 11 15 17 17 16 16 16 15 15 16 17 17 16 16 13 10 9 11 13 13 15 14 13 12 10 10 10 10
10 12 14 15 13 11 10 9 9 10 10 10 10 10 10 11 13 13 14 15 16 15 15 16 16 14 13 11 12 13 14 14 14 14 15 13 13 12 12 11 11 11 10
12 12 11 9 8 9 9 9 8 8 6 6 8 9 10 10 11 11 12 13 12 12 14 13 9 10 10 10 11 13 14 14 14 14 15 15 13 12 12 13 14 12 12
9 8 8 8 8 9 9 6 2 4 6 6 7 7 8 9 9 9 9 8 7 8 11 11 10 11 10 11 12 13 14 17 18 18 17 15 15 13 15 15 15 14 14
8 8 7 7 7 8 7 8 8 5 0 1 5 5 6 9 10 11 9 6 5 7 10 12 13 15 18 17 15 15 17 16 15 15 17 16 15 15 16 17 16 17 16
5 4 5 7 6 5 6 6 7 8 8 5 7 8 11 12 15 12 11 10 10 9 10 12 12 14 16 18 17 14 14 15 16 16 14 14 15 16 16 16 17 18 18
7 7 7 4 2 5 3 3 7 9 12 14 16 17 17 18 18 20 19 14 9 12 17 17 17 16 15 13 14 17 19 17 15 14 13 12 12 11 13 15 16 18 19
9 9 8 9 6 3 3 7 5 8 6 11 14 17 18 18 18 18 16 19 14 13 19 25 27 19 18 17 18 19 18 15 15 12 10 11 12 13 15 17 18 19 19
11 10 9 9 8 10 10 13 12 11 10 11 14 13 19 23 16 17 18 18 20 22 24 20 27 23 31 31 25 21 21 18 17 16 17 16 15 16 17 19 19 21 21
13 11 10 11 13 15 17 16 15 13 13 12 14 11 12 13 9 14 19 20 22 20 23 24 30 27 29 28 30 30 26 30 30 25 24 29 29 27 26 23 21 20 21
16 13 13 17 19 23 13 17 16 15 10 14 13 15 20 20 21 21 22 24 25 31 35 31 34 30 32 34 35 31 25 30 31 31 35 35 33 33 35 34 34 29 23
Wind_Direction
181 161 143 71 22 14 6 16 13 18 26 25 30 36 31 31 43 54 53 41 32 27 30 101 129 171 214 247 263 261 261 269 265 258 259 269 277 284 292 295 291 283 305
159 158 129 59 17 5 11 15 23 19 24 27 18 28 30 28 38 42 36 41 49 40 42 67 169 196 216 227 240 253 257 262 256 259 259 268 279 288 284 294 295 292 300
111 127 116 49 6 10 12 9 26 23 22 23 24 23 31 27 35 38 40 41 37 34 43 40 316 263 249 242 242 247 254 264 267 271 276 279 287 286 281 289 292 292 291
93 103 105 35 20 11 14 11 24 22 26 19 20 23 21 30 37 38 38 40 37 32 27 21 7 329 302 294 297 290 274 296 300 291 281 267 267 281 293 288 290 285 288
130 124 104 46 35 6 3 15 15 17 20 17 11 5 7 15 19 23 20 19 15 9 9 5 356 344 328 322 328 309 302 299 281 276 280 278 272 275 274 287 285 292 287
162 111 102 62 15 353 358 6 4 6 5 9 7 351 344 348 359 8 19 15 9 13 8 5 0 346 333 323 318 315 313 312 308 304 298 289 286 286 288 288 287 286 293
155 140 115 43 3 357 356 357 358 350 351 355 358 353 336 332 337 348 1 360 1 11 13 1 350 349 342 337 327 317 310 305 306 304 298 294 294 289 287 285 287 290 293
193 355 355 336 341 353 356 347 344 340 340 340 346 347 341 321 319 334 342 349 356 358 355 356 353 332 320 320 319 315 309 305 305 304 297 291 287 284 283 284 291 293 289
245 305 294 298 322 341 342 341 331 329 332 331 333 335 343 326 316 323 335 331 341 349 344 340 334 325 306 310 313 307 305 306 304 303 296 291 287 283 281 279 284 291 294
245 287 283 287 297 311 315 324 332 330 327 322 321 323 325 326 321 322 333 335 329 328 332 327 317 305 303 300 291 294 301 308 307 301 297 294 290 282 286 287 284 285 287
269 284 293 290 296 305 311 314 319 322 318 318 304 297 307 313 321 321 322 328 324 312 325 325 319 307 299 299 303 306 299 303 296 294 296 294 283 275 278 282 286 290 290
273 279 285 283 286 296 301 306 308 307 312 315 290 289 297 293 300 302 322 318 316 311 317 318 314 304 302 303 303 301 300 300 298 300 300 297 285 273 276 280 283 287 290
271 269 281 289 286 286 291 297 305 307 304 302 292 296 295 278 293 299 297 292 308 308 312 314 308 288 302 301 299 298 295 293 294 297 298 292 285 280 279 278 277 279 282
268 277 281 279 279 287 294 295 298 299 301 310 270 290 282 287 290 294 275 299 304 304 304 304 307 301 303 297 296 295 292 290 292 293 291 290 287 286 280 273 266 265 275
276 281 279 276 281 288 290 293 299 305 305 286 274 270 278 278 277 279 282 296 298 296 295 297 300 300 299 297 293 292 290 291 291 290 293 293 292 288 280 273 271 271 274
277 276 275 278 283 289 289 289 296 298 295 291 285 289 290 278 279 286 290 292 292 292 293 297 296 297 301 306 308 309 307 293 289 290 289 289 288 282 274 265 271 279 288
270 273 276 281 284 281 280 289 301 301 299 298 298 295 290 289 290 291 291 291 291 293 291 292 301 311 315 315 311 318 319 315 309 304 297 288 281 273 269 265 265 274 282
270 272 274 274 273 277 288 301 304 297 308 311 302 301 300 301 302 301 297 293 292 291 290 294 311 324 320 316 316 310 305 302 299 296 293 290 284 277 272 273 273 276 284
254 252 251 250 256 268 279 276 208 284 324 324 323 330 327 325 325 322 309 302 299 301 305 310 334 321 314 315 314 313 310 308 309 308 300 289 283 276 270 268 274 280 279
244 256 276 291 300 298 315 331 338 346 347 359 350 352 3 11 5 349 330 332 331 328 314 314 324 323 323 324 326 319 307 306 304 301 298 292 283 277 275 273 275 277 277
260 266 264 255 268 306 322 330 336 340 344 4 13 7 10 1 2 356 349 351 351 352 355 345 337 330 324 325 331 335 321 310 309 306 298 291 290 286 281 278 277 275 276
228 228 237 239 280 278 332 8 18 349 348 336 330 334 340 340 338 345 338 328 337 338 338 341 332 308 308 315 326 334 330 335 323 311 309 309 301 301 300 296 292 286 280
204 211 215 246 272 299 302 327 257 279 310 286 292 305 308 313 311 317 333 329 323 310 318 316 314 319 309 307 301 306 326 319 322 321 321 326 327 322 312 304 296 290 285
204 202 221 248 270 285 292 295 289 287 296 279 272 295 302 306 292 335 321 319 308 301 302 295 311 304 324 311 295 297 299 297 291 294 298 302 301 299 302 304 301 291 284
223 237 251 262 271 277 274 287 289 290 279 272 277 304 303 294 289 267 265 265 279 284 293 297 313 308 311 321 304 292 302 296 288 286 281 287 292 298 293 295 300 301 296
245 258 266 263 271 276 277 277 285 269 265 252 258 261 277 279 276 279 267 274 285 298 307 304 308 303 303 312 317 320 308 312 301 289 286 269 273 286 288 291 286 283 286